When you browse on this site, cookies collect data to enhance your experience and personalize the content and advertising you see.
Visit our Privacy Policy to learn more. By continuing to use the site, you agree to this use of cookies and data.
  • In Czech Republic
  • List of Countries
  • For 7 days
  • Water Temperature
  • Weather Map
  • Weather Widgets
  • user-avatar
    Login

    Hourly Weather Brest

    Today, 30 May, Saturday

    Time Temperature Precipitation Wind Pressure Humidity
    00:00 +9°C° 0.1 mm 5 mps 750 mmHg 87%
    01:00 +9°C° 0.1 mm 5 mps 750 mmHg 89%
    02:00 +8°C° 0.1 mm 5 mps 749 mmHg 91%
    03:00 +8°C° 0.5 mm 5 mps 749 mmHg 92%
    04:00 +8°C° 0.5 mm 6 mps 749 mmHg 93%
    05:00 +8°C° 0.5 mm 6 mps 748 mmHg 94%
    06:00 +8°C° 0.2 mm 6 mps 748 mmHg 93%
    07:00 +8°C° 0.2 mm 6 mps 748 mmHg 91%
    08:00 +9°C° 0.2 mm 6 mps 748 mmHg 90%
    09:00 +10°C° 0.1 mm 6 mps 748 mmHg 86%
    10:00 +10°C° 0.1 mm 6 mps 747 mmHg 83%
    11:00 +11°C° 0.1 mm 7 mps 747 mmHg 80%
    12:00 +11°C° 0.8 mm 7 mps 747 mmHg 82%
    13:00 +11°C° 0.8 mm 7 mps 747 mmHg 85%
    14:00 +11°C° 0.8 mm 7 mps 747 mmHg 88%
    15:00 +11°C° 1.9 mm 7 mps 746 mmHg 89%
    16:00 +11°C° 1.9 mm 7 mps 745 mmHg 90%
    17:00 +11°C° 1.9 mm 8 mps 745 mmHg 91%
    18:00 +11°C° 2.2 mm 8 mps 744 mmHg 92%
    19:00 +11°C° 2.2 mm 9 mps 744 mmHg 93%
    20:00 +11°C° 2.2 mm 10 mps 743 mmHg 93%
    21:00 +11°C° 2.6 mm 10 mps 742 mmHg 94%
    22:00 +11°C° 2.6 mm 10 mps 741 mmHg 94%
    23:00 +12°C° 2.6 mm 10 mps 741 mmHg 94%

    Tomorrow, 31 May, Sunday

    Time Temperature Precipitation Wind Pressure Humidity
    00:00 +12°C° 1 mm 10 mps 741 mmHg 93%
    01:00 +12°C° 1 mm 9 mps 740 mmHg 93%
    02:00 +12°C° 1 mm 9 mps 740 mmHg 92%
    03:00 +12°C° 0.2 mm 9 mps 740 mmHg 92%
    04:00 +12°C° 0.2 mm 8 mps 740 mmHg 92%
    05:00 +12°C° 0.2 mm 8 mps 741 mmHg 93%
    06:00 +12°C° 0.2 mm 8 mps 741 mmHg 93%
    07:00 +12°C° 0.2 mm 8 mps 742 mmHg 92%
    08:00 +12°C° 0.2 mm 8 mps 742 mmHg 92%
    09:00 +12°C° 0.1 mm 8 mps 743 mmHg 91%
    10:00 +12°C° 0.1 mm 8 mps 743 mmHg 90%
    11:00 +12°C° 0.1 mm 8 mps 744 mmHg 89%
    12:00 +11°C° 0.2 mm 8 mps 744 mmHg 90%
    13:00 +11°C° 0.2 mm 8 mps 745 mmHg 90%
    14:00 +10°C° 0.2 mm 8 mps 745 mmHg 90%
    15:00 +11°C° 0.1 mm 8 mps 745 mmHg 88%
    16:00 +11°C° 0.1 mm 8 mps 746 mmHg 86%
    17:00 +11°C° 0.1 mm 8 mps 746 mmHg 84%
    18:00 +11°C° 0 mm 6 mps 747 mmHg 84%
    19:00 +12°C° 0 mm 5 mps 747 mmHg 84%
    20:00 +12°C° 0 mm 4 mps 747 mmHg 84%
    21:00 +12°C° 0 mm 4 mps 748 mmHg 84%
    22:00 +12°C° 0 mm 4 mps 748 mmHg 84%
    23:00 +11°C° 0 mm 4 mps 749 mmHg 84%

    Day after tomorrow, 1 June, Monday

    Time Temperature Precipitation Wind Pressure Humidity
    00:00 +10°C° 0 mm 5 mps 749 mmHg 83%
    01:00 +9°C° 0 mm 5 mps 749 mmHg 82%
    02:00 +8°C° 0 mm 5 mps 750 mmHg 81%
    03:00 +8°C° 0 mm 5 mps 750 mmHg 79%
    04:00 +7°C° 0 mm 5 mps 750 mmHg 77%
    05:00 +7°C° 0 mm 5 mps 750 mmHg 75%
    06:00 +8°C° 0 mm 5 mps 750 mmHg 72%
    07:00 +9°C° 0 mm 6 mps 751 mmHg 70%
    08:00 +10°C° 0 mm 6 mps 751 mmHg 67%
    09:00 +11°C° 0 mm 6 mps 751 mmHg 64%
    10:00 +13°C° 0 mm 6 mps 751 mmHg 61%
    11:00 +14°C° 0 mm 7 mps 751 mmHg 58%
    12:00 +14°C° 0 mm 7 mps 751 mmHg 58%
    13:00 +14°C° 0 mm 7 mps 751 mmHg 58%
    14:00 +14°C° 0 mm 7 mps 751 mmHg 57%
    15:00 +14°C° 0 mm 6 mps 751 mmHg 57%
    16:00 +14°C° 0 mm 6 mps 751 mmHg 57%
    17:00 +14°C° 0 mm 6 mps 751 mmHg 57%
    18:00 +13°C° 0 mm 5 mps 750 mmHg 62%
    19:00 +12°C° 0 mm 4 mps 750 mmHg 67%
    20:00 +11°C° 0 mm 3 mps 750 mmHg 72%
    21:00 +11°C° 0.1 mm 3 mps 750 mmHg 74%
    22:00 +10°C° 0.1 mm 4 mps 750 mmHg 77%
    23:00 +10°C° 0.1 mm 4 mps 749 mmHg 79%

    2 June, Tuesday

    Time Temperature Precipitation Wind Pressure Humidity
    00:00 +8°C° 0.4 mm 4 mps 749 mmHg 83%
    01:00 +7°C° 0.4 mm 4 mps 749 mmHg 87%
    02:00 +7°C° 0.4 mm 4 mps 748 mmHg 91%
    03:00 +6°C° 0.2 mm 4 mps 748 mmHg 92%
    04:00 +5°C° 0.2 mm 5 mps 748 mmHg 92%
    05:00 +5°C° 0.2 mm 5 mps 748 mmHg 92%
    06:00 +5°C° 0 mm 6 mps 748 mmHg 87%
    07:00 +7°C° 0 mm 6 mps 748 mmHg 82%
    08:00 +9°C° 0 mm 7 mps 748 mmHg 77%
    09:00 +10°C° 0 mm 7 mps 747 mmHg 73%
    10:00 +11°C° 0 mm 8 mps 747 mmHg 68%
    11:00 +12°C° 0 mm 8 mps 747 mmHg 64%
    12:00 +11°C° 0.7 mm 8 mps 747 mmHg 72%
    13:00 +10°C° 0.7 mm 7 mps 746 mmHg 81%
    14:00 +9°C° 0.7 mm 6 mps 746 mmHg 89%
    15:00 +9°C° 0.1 mm 6 mps 746 mmHg 88%
    16:00 +10°C° 0.1 mm 7 mps 746 mmHg 86%
    17:00 +10°C° 0.1 mm 7 mps 745 mmHg 85%
    18:00 +9°C° 0.4 mm 6 mps 745 mmHg 86%
    19:00 +9°C° 0.4 mm 6 mps 745 mmHg 88%
    20:00 +8°C° 0.4 mm 5 mps 745 mmHg 90%
    21:00 +8°C° 0.1 mm 5 mps 745 mmHg 90%
    22:00 +8°C° 0.1 mm 5 mps 745 mmHg 91%
    23:00 +8°C° 0.1 mm 5 mps 745 mmHg 91%

    3 June, Wednesday

    Time Temperature Precipitation Wind Pressure Humidity
    00:00 +8°C° 0.2 mm 5 mps 744 mmHg 91%
    01:00 +8°C° 0.2 mm 5 mps 744 mmHg 92%
    02:00 +8°C° 0.2 mm 5 mps 744 mmHg 93%
    03:00 +8°C° 0.1 mm 5 mps 743 mmHg 93%
    04:00 +8°C° 0.1 mm 5 mps 743 mmHg 93%
    05:00 +8°C° 0.1 mm 5 mps 743 mmHg 93%
    06:00 +8°C° 0.2 mm 5 mps 743 mmHg 93%
    07:00 +8°C° 0.2 mm 4 mps 743 mmHg 93%
    08:00 +8°C° 0.2 mm 4 mps 743 mmHg 93%
    09:00 +10°C° 0.1 mm 4 mps 743 mmHg 92%
    10:00 +10°C° 0.1 mm 4 mps 744 mmHg 91%
    11:00 +11°C° 0.1 mm 3 mps 744 mmHg 90%
    12:00 +11°C° 0.2 mm 3 mps 744 mmHg 90%
    13:00 +11°C° 0.2 mm 3 mps 744 mmHg 90%
    14:00 +11°C° 0.2 mm 3 mps 744 mmHg 91%
    15:00 +11°C° 0.2 mm 3 mps 744 mmHg 92%
    16:00 +11°C° 0.2 mm 3 mps 744 mmHg 92%
    17:00 +11°C° 0.2 mm 3 mps 744 mmHg 93%
    18:00 +12°C° 0 mm 2 mps 744 mmHg 94%
    19:00 +12°C° 0 mm 2 mps 744 mmHg 94%
    20:00 +12°C° 0 mm 2 mps 743 mmHg 95%
    21:00 +10°C° 0 mm 2 mps 744 mmHg 95%
    22:00 +9°C° 0 mm 2 mps 744 mmHg 96%
    23:00 +9°C° 0 mm 2 mps 744 mmHg 97%

    4 June, Thursday

    Time Temperature Precipitation Wind Pressure Humidity
    00:00 +8°C° 0 mm 2 mps 744 mmHg 97%
    01:00 +8°C° 0 mm 2 mps 744 mmHg 97%
    02:00 +9°C° 0 mm 1 mps 743 mmHg 97%
    03:00 +9°C° 0 mm 1 mps 743 mmHg 97%
    04:00 +9°C° 0 mm 1 mps 743 mmHg 97%
    05:00 +9°C° 0 mm 1 mps 743 mmHg 97%
    06:00 +10°C° 0 mm 1 mps 744 mmHg 93%
    07:00 +12°C° 0 mm 1 mps 744 mmHg 89%
    08:00 +14°C° 0 mm 1 mps 744 mmHg 85%
    09:00 +15°C° 0.6 mm 2 mps 744 mmHg 82%
    10:00 +16°C° 0.6 mm 2 mps 744 mmHg 79%
    11:00 +17°C° 0.6 mm 2 mps 744 mmHg 75%
    12:00 +17°C° 0.8 mm 2 mps 743 mmHg 73%
    13:00 +18°C° 0.8 mm 2 mps 743 mmHg 70%
    14:00 +19°C° 0.8 mm 1 mps 743 mmHg 67%
    15:00 +19°C° 0.9 mm 1 mps 743 mmHg 67%
    16:00 +19°C° 0.9 mm 1 mps 743 mmHg 67%
    17:00 +19°C° 0.9 mm 1 mps 742 mmHg 66%
    18:00 +16°C° 0.4 mm 0 mps 742 mmHg 71%
    19:00 +15°C° 0.4 mm 0 mps 742 mmHg 75%
    20:00 +14°C° 0.4 mm 0 mps 742 mmHg 80%
    21:00 +13°C° 0 mm 0 mps 742 mmHg 82%
    22:00 +12°C° 0 mm 0 mps 742 mmHg 84%
    23:00 +11°C° 0 mm 0 mps 743 mmHg 86%
    Show more